Tracking 19636 objects as of 24-May-2019
HD Live streaming from Space Station
objects crossing your sky now

UNIFORM 1

Track UNIFORM 1 now!
10-day predictions
UNIFORM 1 is classified as:


NORAD ID: 39767
Int'l Code: 2014-029B
Perigee: 620.4 km
Apogee: 629.1 km
Inclination: 97.9 °
Period: 97.1 minutes
Semi major axis: 6995 km
RCS: Unknown
Launch date: May 24, 2014
Source: Japan (JPN)
Launch site: TANEGASHIMA SPACE CENTER (TNSTA)

Uplink (MHz):
Downlink (MHz): 2228.000
Beacon (MHz):
Mode:
Call sign:
Status:

aabbcc
Your satellite tracking list
Your tracking list is empty




NASA's NSSDC Master Catalog

Two Line Element Set (TLE):
1 39767U 14029B   19144.29041687  .00000140  00000-0  23301-4 0  9992
2 39767  97.8539 239.2888 0006270 143.1197 217.0448 14.83715391270654
Source of the keplerian elements: AFSPC